| time (UTC) | temp F | wind direction | speed MPH | gust MPH | rain 1hr in | rain 24hr in | rain mn in | humidity % | barometer mb |
| 20260505052245 | 59 | 194 | 2.0 | 2.0 | 0.00 | 0.00 | 0.00 | 79 | 1010.4 |
| 20260505051742 | 59 | 170 | 4.0 | 5.0 | 0.00 | 0.00 | 0.00 | 78 | 1010.5 |
| 20260505051240 | 59 | 175 | 1.0 | 2.0 | 0.00 | 0.00 | 0.00 | 78 | 1010.4 |
| 20260505050738 | 59 | 178 | 2.0 | 3.0 | 0.00 | 0.00 | 0.00 | 78 | 1010.5 |
| 20260505050236 | 59 | 167 | 5.0 | 6.0 | 0.00 | 0.00 | 0.00 | 77 | 1010.5 |
| 20260505041706 | 60 | 193 | 3.0 | 3.0 | 0.00 | 0.00 | 0.00 | 73 | 1010.9 |
| 20260505041203 | 60 | 182 | 1.0 | 2.0 | 0.00 | 0.00 | 0.00 | 72 | 1010.8 |
| 20260505040700 | 60 | 199 | 2.0 | 2.0 | 0.00 | 0.00 | 0.00 | 71 | 1010.8 |
| 20260505040157 | 60 | 223 | 5.0 | 6.0 | 0.00 | 0.00 | 0.00 | 70 | 1011.0 |
| 20260505035654 | 60 | 184 | 5.0 | 7.0 | 0.00 | 0.00 | 0.00 | 70 | 1010.8 |
| 20260505035150 | 61 | 218 | 6.0 | 8.0 | 0.00 | 0.00 | 0.00 | 69 | 1010.9 |
| 20260505034646 | 61 | 186 | 1.0 | 2.0 | 0.00 | 0.00 | 0.00 | 69 | 1011.0 |
| 20260505034144 | 61 | 203 | 3.0 | 3.0 | 0.00 | 0.00 | 0.00 | 69 | 1010.9 |
| 20260505033640 | 61 | 204 | 2.0 | 3.0 | 0.00 | 0.00 | 0.00 | 68 | 1010.8 |
| 20260505033139 | 61 | 187 | 4.0 | 5.0 | 0.00 | 0.00 | 0.00 | 68 | 1010.9 |
| 20260505032636 | 61 | 176 | 3.0 | 3.0 | 0.00 | 0.00 | 0.00 | 68 | 1010.9 |
| 20260505032132 | 61 | 210 | 3.0 | 3.0 | 0.00 | 0.00 | 0.00 | 67 | 1011.0 |
| 20260505031630 | 61 | 189 | 3.0 | 3.0 | 0.00 | 0.00 | 0.00 | 67 | 1011.3 |
| 20260505031126 | 61 | 165 | 2.0 | 2.0 | 0.00 | 0.00 | 0.00 | 67 | 1011.3 |
| 20260505030623 | 61 | 209 | 3.0 | 5.0 | 0.00 | 0.00 | 0.00 | 66 | 1011.2 |
| 20260505030119 | 61 | 197 | 3.0 | 6.0 | 0.00 | 0.00 | 0.00 | 66 | 1011.3 |
| 20260505025615 | 61 | 191 | 3.0 | 3.0 | 0.00 | 0.00 | 0.00 | 67 | 1011.2 |
| 20260505025114 | 61 | 190 | 1.0 | 1.0 | 0.00 | 0.00 | 0.00 | 66 | 1011.3 |
| 20260505024611 | 61 | 188 | 2.0 | 3.0 | 0.00 | 0.00 | 0.00 | 66 | 1011.3 |
| 20260505024108 | 61 | 198 | 3.0 | 3.0 | 0.00 | 0.00 | 0.00 | 66 | 1011.2 |
| 20260505023605 | 61 | 177 | 1.0 | 1.0 | 0.00 | 0.00 | 0.00 | 66 | 1011.2 |
| 20260505023103 | 61 | 203 | 2.0 | 3.0 | 0.00 | 0.00 | 0.00 | 66 | 1011.2 |
| 20260505022600 | 61 | 191 | 2.0 | 2.0 | 0.00 | 0.00 | 0.00 | 66 | 1011.5 |
| 20260505022057 | 61 | 179 | 3.0 | 5.0 | 0.00 | 0.00 | 0.00 | 66 | 1011.3 |
| 20260505021553 | 61 | 201 | 3.0 | 3.0 | 0.00 | 0.00 | 0.00 | 66 | 1011.4 |
| 20260505021050 | 61 | 187 | 1.0 | 2.0 | 0.00 | 0.00 | 0.00 | 65 | 1011.2 |
| 20260505020549 | 61 | 194 | 2.0 | 3.0 | 0.00 | 0.00 | 0.00 | 66 | 1011.5 |
| 20260505020047 | 61 | 175 | 3.0 | 3.0 | 0.00 | 0.00 | 0.00 | 66 | 1011.4 |
| 20260505015544 | 61 | 168 | 3.0 | 3.0 | 0.00 | 0.00 | 0.00 | 65 | 1011.3 |
| 20260505015041 | 61 | 167 | 6.0 | 7.0 | 0.00 | 0.00 | 0.00 | 65 | 1011.3 |
| 20260505014538 | 61 | 208 | 1.0 | 1.0 | 0.00 | 0.00 | 0.00 | 66 | 1011.2 |
| 20260505014035 | 61 | 214 | 3.0 | 3.0 | 0.00 | 0.00 | 0.00 | 65 | 1011.2 |
| 20260505013531 | 61 | 197 | 1.0 | 2.0 | 0.00 | 0.00 | 0.00 | 66 | 1011.2 |
| 20260505013029 | 61 | 206 | 2.0 | 3.0 | 0.00 | 0.00 | 0.00 | 66 | 1011.4 |
| 20260505012527 | 61 | 154 | 2.0 | 3.0 | 0.00 | 0.00 | 0.00 | 66 | 1011.3 |
| 20260505012024 | 61 | 206 | 0.0 | 1.0 | 0.00 | 0.00 | 0.00 | 66 | 1011.4 |
| 20260505011519 | 61 | 196 | 0.0 | 1.0 | 0.00 | 0.00 | 0.00 | 67 | 1011.3 |
| 20260505011017 | 61 | 182 | 3.0 | 3.0 | 0.00 | 0.00 | 0.00 | 66 | 1011.1 |
| 20260505010512 | 61 | 172 | 2.0 | 5.0 | 0.00 | 0.00 | 0.00 | 66 | 1011.0 |
| 20260505010009 | 61 | 177 | 3.0 | 3.0 | 0.00 | 0.00 | 0.00 | 66 | 1011.0 |
| 20260505005505 | 61 | 234 | 3.0 | 5.0 | 0.00 | 0.00 | 0.00 | 66 | 1011.3 |
| 20260505005004 | 61 | 203 | 5.0 | 8.0 | 0.00 | 0.00 | 0.00 | 66 | 1010.9 |
| 20260505004500 | 61 | 232 | 2.0 | 3.0 | 0.00 | 0.00 | 0.00 | 66 | 1010.9 |
| 20260505003956 | 61 | 193 | 2.0 | 2.0 | 0.00 | 0.00 | 0.00 | 65 | 1010.8 |
| 20260505003454 | 62 | 190 | 8.0 | 10.0 | 0.00 | 0.00 | 0.00 | 64 | 1011.0 |
| 20260505002950 | 62 | 192 | 5.0 | 7.0 | 0.00 | 0.00 | 0.00 | 64 | 1010.6 |
| 20260505002446 | 62 | 184 | 8.0 | 11.0 | 0.00 | 0.00 | 0.00 | 63 | 1011.0 |
| 20260505001945 | 62 | 175 | 4.0 | 5.0 | 0.00 | 0.00 | 0.00 | 62 | 1010.6 |
| 20260505001442 | 62 | 243 | 5.0 | 6.0 | 0.00 | 0.00 | 0.00 | 61 | 1010.6 |
| 20260505000939 | 63 | 200 | 7.0 | 9.0 | 0.00 | 0.00 | 0.00 | 60 | 1010.4 |
| 20260505000437 | 63 | 208 | 3.0 | 3.0 | 0.00 | 0.00 | 0.00 | 59 | 1010.4 |
| 20260504235933 | 64 | 178 | 5.0 | 7.0 | 0.00 | 0.00 | 0.00 | 58 | 1010.3 |
| 20260504235431 | 64 | 161 | 4.0 | 6.0 | 0.00 | 0.00 | 0.00 | 57 | 1010.3 |
| 20260504234926 | 64 | 215 | 3.0 | 3.0 | 0.00 | 0.00 | 0.00 | 56 | 1010.3 |
| 20260504234424 | 64 | 209 | 4.0 | 5.0 | 0.00 | 0.00 | 0.00 | 55 | 1010.2 |
| 20260504233921 | 65 | 171 | 7.0 | 9.0 | 0.00 | 0.00 | 0.00 | 54 | 1010.0 |
| 20260504233417 | 65 | 217 | 4.0 | 7.0 | 0.00 | 0.00 | 0.00 | 52 | 1010.1 |
| 20260504232913 | 66 | 189 | 6.0 | 8.0 | 0.00 | 0.00 | 0.00 | 51 | 1010.0 |
| 20260504232410 | 66 | 213 | 2.0 | 3.0 | 0.00 | 0.00 | 0.00 | 50 | 1010.2 |
| 20260504231907 | 66 | 200 | 1.0 | 2.0 | 0.00 | 0.00 | 0.00 | 50 | 1010.1 |
| 20260504231404 | 66 | 179 | 6.0 | 8.0 | 0.00 | 0.00 | 0.00 | 49 | 1010.1 |
| 20260504230900 | 67 | 197 | 6.0 | 8.0 | 0.00 | 0.00 | 0.00 | 49 | 1009.9 |
| 20260504230357 | 67 | 204 | 3.0 | 5.0 | 0.00 | 0.00 | 0.00 | 49 | 1009.9 |
| 20260504225856 | 67 | 167 | 6.0 | 6.0 | 0.00 | 0.00 | 0.00 | 49 | 1009.8 |
| 20260504225352 | 67 | 186 | 3.0 | 5.0 | 0.00 | 0.00 | 0.00 | 50 | 1009.9 |
| 20260504224850 | 67 | 199 | 11.0 | 17.0 | 0.00 | 0.00 | 0.00 | 49 | 1009.7 |
| 20260504224346 | 67 | 235 | 3.0 | 3.0 | 0.00 | 0.00 | 0.00 | 51 | 1009.8 |
| 20260504223843 | 67 | 187 | 5.0 | 7.0 | 0.00 | 0.00 | 0.00 | 51 | 1009.8 |
| 20260504223338 | 67 | 186 | 3.0 | 5.0 | 0.00 | 0.00 | 0.00 | 51 | 1009.8 |
| 20260504222835 | 67 | 152 | 11.0 | 13.0 | 0.00 | 0.00 | 0.00 | 51 | 1009.8 |
| 20260504222332 | 68 | 223 | 4.0 | 6.0 | 0.00 | 0.00 | 0.00 | 50 | 1009.6 |
| 20260504221831 | 68 | 229 | 3.0 | 3.0 | 0.00 | 0.00 | 0.00 | 49 | 1009.6 |
| 20260504221327 | 68 | 201 | 6.0 | 8.0 | 0.00 | 0.00 | 0.00 | 49 | 1009.8 |
| 20260504220824 | 68 | 218 | 11.0 | 18.0 | 0.00 | 0.00 | 0.00 | 49 | 1009.8 |
| 20260504220321 | 68 | 157 | 6.0 | 7.0 | 0.00 | 0.00 | 0.00 | 49 | 1009.8 |
| 20260504215819 | 69 | 187 | 12.0 | 16.0 | 0.00 | 0.00 | 0.00 | 48 | 1009.6 |
| 20260504215315 | 69 | 209 | 7.0 | 8.0 | 0.00 | 0.00 | 0.00 | 47 | 1009.8 |
| 20260504214811 | 69 | 164 | 8.0 | 9.0 | 0.00 | 0.00 | 0.00 | 47 | 1009.7 |
| 20260504214308 | 69 | 182 | 7.0 | 9.0 | 0.00 | 0.00 | 0.00 | 47 | 1009.9 |
| 20260504213804 | 70 | 215 | 3.0 | 7.0 | 0.00 | 0.00 | 0.00 | 47 | 1009.6 |
| 20260504213300 | 69 | 165 | 2.0 | 2.0 | 0.00 | 0.00 | 0.00 | 48 | 1009.7 |
| 20260504212758 | 68 | 165 | 3.0 | 5.0 | 0.00 | 0.00 | 0.00 | 50 | 1009.8 |
| 20260504212254 | 69 | 189 | 8.0 | 9.0 | 0.00 | 0.00 | 0.00 | 49 | 1009.8 |
| 20260504211752 | 69 | 183 | 8.0 | 10.0 | 0.00 | 0.00 | 0.00 | 48 | 1009.8 |
| 20260504211247 | 69 | 175 | 11.0 | 14.0 | 0.00 | 0.00 | 0.00 | 49 | 1009.6 |
| 20260504210745 | 69 | 245 | 8.0 | 13.0 | 0.00 | 0.00 | 0.00 | 50 | 1009.6 |
| 20260504210242 | 69 | 203 | 5.0 | 10.0 | 0.00 | 0.00 | 0.00 | 54 | 1009.6 |
| 20260504205739 | 69 | 223 | 4.0 | 5.0 | 0.00 | 0.00 | 0.00 | 54 | 1009.5 |
| 20260504205237 | 69 | 145 | 7.0 | 10.0 | 0.00 | 0.00 | 0.00 | 53 | 1009.4 |
| 20260504204735 | 68 | 90 | 4.0 | 5.0 | 0.00 | 0.00 | 0.00 | 55 | 1009.4 |
| 20260504204233 | 68 | 150 | 3.0 | 6.0 | 0.00 | 0.00 | 0.00 | 57 | 1009.7 |
| 20260504203732 | 68 | 167 | 6.0 | 10.0 | 0.00 | 0.00 | 0.00 | 58 | 1009.6 |
| 20260504203229 | 67 | 165 | 7.0 | 9.0 | 0.00 | 0.00 | 0.00 | 57 | 1009.6 |
| 20260504202729 | 68 | 175 | 8.0 | 9.0 | 0.00 | 0.00 | 0.00 | 57 | 1009.7 |
| 20260504202226 | 68 | 167 | 7.0 | 9.0 | 0.00 | 0.00 | 0.00 | 54 | 1009.6 |
| 20260504201724 | 68 | 129 | 4.0 | 7.0 | 0.00 | 0.00 | 0.00 | 55 | 1009.7 |
| 20260504201220 | 68 | 182 | 9.0 | 10.0 | 0.00 | 0.00 | 0.00 | 56 | 1009.5 |
| 20260504200718 | 68 | 81 | 8.0 | 10.0 | 0.00 | 0.00 | 0.00 | 56 | 1009.9 |
| 20260504200214 | 68 | 187 | 8.0 | 11.0 | 0.00 | 0.00 | 0.00 | 55 | 1009.6 |
| 20260504195711 | 68 | 159 | 5.0 | 6.0 | 0.00 | 0.00 | 0.00 | 56 | 1010.0 |
| 20260504195206 | 69 | 182 | 9.0 | 10.0 | 0.00 | 0.00 | 0.00 | 56 | 1009.8 |
| 20260504194703 | 71 | 188 | 9.0 | 10.0 | 0.00 | 0.00 | 0.00 | 49 | 1009.9 |
| 20260504194159 | 69 | 149 | 6.0 | 8.0 | 0.00 | 0.00 | 0.00 | 53 | 1009.8 |
| 20260504193656 | 70 | 182 | 6.0 | 9.0 | 0.00 | 0.00 | 0.00 | 53 | 1009.9 |
| 20260504193154 | 74 | 85 | 4.0 | 5.0 | 0.00 | 0.00 | 0.00 | 45 | 1010.0 |
| 20260504192652 | 75 | 184 | 3.0 | 6.0 | 0.00 | 0.00 | 0.00 | 31 | 1009.9 |
| 20260504192150 | 74 | 141 | 4.0 | 6.0 | 0.00 | 0.00 | 0.00 | 33 | 1010.0 |
| 20260504191648 | 74 | 182 | 4.0 | 6.0 | 0.00 | 0.00 | 0.00 | 33 | 1010.2 |
| 20260504191144 | 74 | 331 | 6.0 | 10.0 | 0.00 | 0.00 | 0.00 | 33 | 1010.3 |
| 20260504190640 | 74 | 267 | 5.0 | 6.0 | 0.00 | 0.00 | 0.00 | 34 | 1010.5 |
| 20260504190137 | 73 | 298 | 3.0 | 5.0 | 0.00 | 0.00 | 0.00 | 34 | 1010.5 |
| 20260504185633 | 73 | 298 | 3.0 | 3.0 | 0.00 | 0.00 | 0.00 | 34 | 1010.5 |
| 20260504185130 | 73 | 229 | 5.0 | 8.0 | 0.00 | 0.00 | 0.00 | 34 | 1010.7 |
| 20260504184626 | 73 | 264 | 2.0 | 3.0 | 0.00 | 0.00 | 0.00 | 35 | 1010.7 |
| 20260504184121 | 73 | 248 | 5.0 | 7.0 | 0.00 | 0.00 | 0.00 | 34 | 1010.6 |
| 20260504183618 | 73 | 262 | 5.0 | 7.0 | 0.00 | 0.00 | 0.00 | 34 | 1010.7 |
| 20260504183116 | 73 | 93 | 3.0 | 3.0 | 0.00 | 0.00 | 0.00 | 36 | 1010.7 |
| 20260504182613 | 74 | 267 | 4.0 | 6.0 | 0.00 | 0.00 | 0.00 | 35 | 1010.8 |
| 20260504182110 | 74 | 201 | 7.0 | 11.0 | 0.00 | 0.00 | 0.00 | 33 | 1010.8 |
| 20260504181608 | 72 | 311 | 5.0 | 7.0 | 0.00 | 0.00 | 0.00 | 37 | 1010.9 |
| 20260504181105 | 73 | 318 | 6.0 | 10.0 | 0.00 | 0.00 | 0.00 | 36 | 1011.0 |
| 20260504180604 | 72 | 149 | 2.0 | 2.0 | 0.00 | 0.00 | 0.00 | 34 | 1011.2 |
| 20260504175559 | 71 | 258 | 3.0 | 3.0 | 0.00 | 0.00 | 0.00 | 37 | 1011.1 |
| 20260504175056 | 71 | 299 | 7.0 | 8.0 | 0.00 | 0.00 | 0.00 | 36 | 1011.1 |
| 20260504174554 | 72 | 298 | 12.0 | 15.0 | 0.00 | 0.00 | 0.00 | 35 | 1011.3 |
| 20260504174051 | 72 | 183 | 7.0 | 9.0 | 0.00 | 0.00 | 0.00 | 34 | 1011.3 |
| 20260504173548 | 72 | 223 | 1.0 | 2.0 | 0.00 | 0.00 | 0.00 | 35 | 1011.4 |
| 20260504173045 | 72 | 311 | 11.0 | 14.0 | 0.00 | 0.00 | 0.00 | 36 | 1011.4 |
| 20260504172541 | 70 | 357 | 9.0 | 13.0 | 0.00 | 0.00 | 0.00 | 36 | 1011.5 |
| 20260504172038 | 72 | 207 | 4.0 | 5.0 | 0.00 | 0.00 | 0.00 | 35 | 1011.6 |
| 20260504171535 | 72 | 259 | 5.0 | 8.0 | 0.00 | 0.00 | 0.00 | 35 | 1011.5 |
| 20260504171032 | 71 | 232 | 5.0 | 6.0 | 0.00 | 0.00 | 0.00 | 35 | 1011.7 |
| 20260504170528 | 70 | 333 | 9.0 | 11.0 | 0.00 | 0.00 | 0.00 | 36 | 1011.7 |
| 20260504150912 | 68 | 185 | 2.0 | 5.0 | 0.00 | 0.00 | 0.00 | 43 | 1013.0 |
| 20260504150408 | 66 | 172 | 3.0 | 5.0 | 0.00 | 0.00 | 0.00 | 43 | 1013.2 |
| 20260504140835 | 65 | 185 | 1.0 | 2.0 | 0.00 | 0.00 | 0.00 | 43 | 1013.5 |
| 20260504140330 | 64 | 225 | 2.0 | 2.0 | 0.00 | 0.00 | 0.00 | 44 | 1013.3 |
| 20260504130800 | 61 | 185 | 5.0 | 7.0 | 0.00 | 0.00 | 0.00 | 51 | 1014.0 |
| 20260504130255 | 61 | 229 | 2.0 | 5.0 | 0.00 | 0.00 | 0.00 | 53 | 1014.0 |
| 20260504120219 | 54 | 233 | 3.0 | 3.0 | 0.00 | 0.00 | 0.00 | 70 | 1014.5 |
| 20260504110647 | 49 | 225 | 2.0 | 2.0 | 0.00 | 0.00 | 0.00 | 76 | 1014.8 |
| 20260504110143 | 49 | 242 | 2.0 | 2.0 | 0.00 | 0.00 | 0.00 | 75 | 1014.9 |
| 20260504100609 | 47 | 219 | 2.0 | 2.0 | 0.00 | 0.00 | 0.00 | 73 | 1014.6 |
| 20260504100107 | 47 | 214 | 2.0 | 2.0 | 0.00 | 0.00 | 0.00 | 74 | 1014.5 |
| 20260504082003 | 46 | 202 | 0.0 | 0.0 | 0.00 | 0.00 | 0.00 | 67 | 1014.6 |
| 20260504081500 | 46 | 217 | 0.0 | 0.0 | 0.00 | 0.00 | 0.00 | 67 | 1014.2 |
| 20260504080955 | 47 | 207 | 0.0 | 0.0 | 0.00 | 0.00 | 0.00 | 66 | 1014.4 |
| 20260504080452 | 47 | 218 | 0.0 | 0.0 | 0.00 | 0.00 | 0.00 | 65 | 1014.4 |